| ตารางข้อมูล | ค้นข้อมูล1 | ค้นข้อมูล2 | ค่าสูงสุด-ต่ำสุด |  

Select Sensor -->| 20402 | 4529A | 4529C | 4529D | 4529E | 4529F | 89M1A | 89M1B | หน้าจอย่อ | 4529 |
ข้อมูลรวม (ยังไม่ได้เลือก Sensor)

IDDate TimeRoom  Temp  Humidity RSSI Time
 1057837  2026-05-07 17:26:23  20402  30.8 °C  46.9 %   17:26 
 1057836  2026-05-07 17:24:35  4529C  32.6 °C  56.3 %   17:24 
 1057835  2026-05-07 17:18:09  4529A  34.3 °C  62.0 %   17:18 
 1057834  2026-05-07 17:17:43  89M1B  35.0 °C  63.1 %   17:17 
 1057833  2026-05-07 17:17:04  4529D  31.5 °C  78.5 %   17:17 
 1057832  2026-05-07 17:16:11  20402  30.8 °C  46.5 %   17:16 
 1057831  2026-05-07 17:14:23  4529C  32.6 °C  56.0 %   17:14 
 1057830  2026-05-07 17:08:04  89M1B  34.9 °C  63.2 %   17:08 
 1057829  2026-05-07 17:07:57  4529A  34.3 °C  62.0 %   17:07 
 1057828  2026-05-07 17:07:30  4529D  31.5 °C  78.6 %   17:07 
 1057827  2026-05-07 17:06:01  20402  30.8 °C  46.2 %   17:06 
 1057826  2026-05-07 17:04:10  4529C  32.6 °C  56.0 %   17:04 
 1057825  2026-05-07 16:58:25  89M1B  35.2 °C  63.5 %   16:58 
 1057824  2026-05-07 16:57:58  4529D  31.5 °C  78.8 %   16:57 
 1057823  2026-05-07 16:57:45  4529A  34.2 °C  62.1 %   16:57 
 1057822  2026-05-07 16:55:51  20402  30.8 °C  46.1 %   16:55 
 1057821  2026-05-07 16:53:55  4529C  32.5 °C  55.9 %   16:53 
 1057820  2026-05-07 16:48:46  89M1B  35.1 °C  63.1 %   16:48 
 1057819  2026-05-07 16:48:26  4529D  31.5 °C  78.9 %   16:48 
 1057818  2026-05-07 16:47:34  4529A  34.1 °C  62.1 %   16:47 
 1057817  2026-05-07 16:45:41  20402  30.7 °C  45.8 %   16:45 
 1057816  2026-05-07 16:43:43  4529C  32.5 °C  56.0 %   16:43 
 1057815  2026-05-07 16:39:07  89M1B  35.2 °C  62.9 %   16:39 
 1057814  2026-05-07 16:38:53  4529D  31.5 °C  78.9 %   16:38 
 1057813  2026-05-07 16:37:22  4529A  34.2 °C  62.4 %   16:37 
 1057812  2026-05-07 16:35:32  20402  30.7 °C  45.6 %   16:35 
 1057811  2026-05-07 16:33:28  4529C  32.5 °C  55.8 %   16:33 
 1057810  2026-05-07 16:29:28  89M1B  35.1 °C  61.6 %   16:29 
 1057809  2026-05-07 16:29:20  4529D  31.5 °C  78.8 %   16:29 
 1057808  2026-05-07 16:27:07  4529A  34.1 °C  62.4 %   16:27 
 1057807  2026-05-07 16:25:22  20402  30.7 °C  45.3 %   16:25 
 1057806  2026-05-07 16:23:14  4529C  32.4 °C  56.1 %   16:23 
 1057805  2026-05-07 16:19:49  89M1B  35.1 °C  62.0 %   16:19 
 1057804  2026-05-07 16:19:47  4529D  31.4 °C  78.6 %   16:19 
 1057803  2026-05-07 16:16:52  4529A  34.1 °C  62.2 %   16:16 
 1057802  2026-05-07 16:15:12  20402  30.7 °C  45.4 %   16:15 
 1057801  2026-05-07 16:13:02  4529C  32.5 °C  56.0 %   16:13 
 1057800  2026-05-07 16:10:15  4529D  31.4 °C  78.7 %   16:10 
 1057799  2026-05-07 16:10:10  89M1B  35.3 °C  62.1 %   16:10 
 1057798  2026-05-07 16:06:40  4529A  34.2 °C  62.5 %   16:06 
 1057797  2026-05-07 16:05:00  20402  30.6 °C  44.8 %   16:05 
 1057796  2026-05-07 16:02:47  4529C  32.4 °C  55.9 %   16:02 
 1057795  2026-05-07 16:00:42  4529D  31.4 °C  79.0 %   16:00 
 1057794  2026-05-07 16:00:31  89M1B  35.2 °C  62.0 %   16:00 
 1057793  2026-05-07 15:56:28  4529A  34.0 °C  62.3 %   15:56 
 1057792  2026-05-07 15:54:51  20402  30.6 °C  44.5 %   15:54 
 1057791  2026-05-07 15:52:32  4529C  32.3 °C  55.8 %   15:52 
 1057790  2026-05-07 15:51:08  4529D  31.3 °C  79.1 %   15:51 
 1057789  2026-05-07 15:50:53  89M1B  35.1 °C  62.0 %   15:50 
 1057788  2026-05-07 15:46:16  4529A  34.1 °C  62.5 %   15:46 
 1057787  2026-05-07 15:44:41  20402  30.6 °C  44.6 %   15:44 
 1057786  2026-05-07 15:42:19  4529C  32.3 °C  55.9 %   15:42 
 1057785  2026-05-07 15:41:36  4529D  31.3 °C  79.4 %   15:41 
 1057784  2026-05-07 15:41:14  89M1B  35.1 °C  61.6 %   15:41 
 1057783  2026-05-07 15:36:04  4529A  33.9 °C  62.2 %   15:36 
 1057782  2026-05-07 15:34:29  20402  30.5 °C  43.8 %   15:34 
 1057781  2026-05-07 15:32:07  4529C  32.3 °C  55.6 %   15:32 
 1057780  2026-05-07 15:32:03  4529D  31.3 °C  80.0 %   15:32 
 1057779  2026-05-07 15:31:36  89M1B  35.0 °C  60.8 %   15:31 
 1057778  2026-05-07 15:25:52  4529A  33.9 °C  62.2 %   15:25 
 1057777  2026-05-07 15:24:19  20402  30.4 °C  43.4 %   15:24 
 1057776  2026-05-07 15:22:30  4529D  31.2 °C  79.0 %   15:22 
 1057775  2026-05-07 15:21:57  89M1B  35.3 °C  60.6 %   15:21 
 1057774  2026-05-07 15:21:54  4529C  32.3 °C  55.6 %   15:21 
 1057773  2026-05-07 15:15:40  4529A  33.8 °C  62.2 %   15:15 
 1057772  2026-05-07 15:14:09  20402  30.3 °C  42.8 %   15:14 
 1057771  2026-05-07 15:12:58  4529D  31.2 °C  79.0 %   15:12 
 1057770  2026-05-07 15:12:19  89M1B  35.4 °C  61.8 %   15:12 
 1057769  2026-05-07 15:11:39  4529C  32.3 °C  55.1 %   15:11 
 1057768  2026-05-07 15:05:28  4529A  33.8 °C  62.4 %   15:05 
 1057767  2026-05-07 15:03:59  20402  30.2 °C  42.2 %   15:03 
 1057766  2026-05-07 15:03:23  4529D  31.2 °C  79.0 %   15:03 
 1057765  2026-05-07 15:02:40  89M1B  35.4 °C  62.2 %   15:02 
 1057764  2026-05-07 15:01:27  4529C  32.2 °C  54.7 %   15:01 
 1057763  2026-05-07 14:55:17  4529A  33.7 °C  62.3 %   14:55 
 1057762  2026-05-07 14:53:50  4529D  31.2 °C  79.2 %   14:53 
 1057761  2026-05-07 14:53:49  20402  30.1 °C  41.9 %   14:53 
 1057760  2026-05-07 14:53:01  89M1B  35.6 °C  61.5 %   14:53 
 1057759  2026-05-07 14:51:14  4529C  32.2 °C  54.7 %   14:51 
 1057758  2026-05-07 14:45:04  4529A  33.7 °C  62.4 %   14:45 
 1057757  2026-05-07 14:44:16  4529D  31.1 °C  79.3 %   14:44 
 1057756  2026-05-07 14:43:40  20402  30.0 °C  41.2 %   14:43 
 1057755  2026-05-07 14:43:23  89M1B  35.6 °C  61.6 %   14:43 
 1057754  2026-05-07 14:40:59  4529C  32.2 °C  54.8 %   14:40 
 1057753  2026-05-07 14:34:52  4529A  33.6 °C  62.4 %   14:34 
 1057752  2026-05-07 14:34:43  4529D  31.0 °C  79.4 %   14:34 
 1057751  2026-05-07 14:33:44  89M1B  35.6 °C  61.2 %   14:33 
 1057750  2026-05-07 14:33:30  20402  30.0 °C  41.3 %   14:33 
 1057749  2026-05-07 14:30:46  4529C  32.1 °C  54.7 %   14:30 
 1057748  2026-05-07 14:25:10  4529D  31.0 °C  79.6 %   14:25 
 1057747  2026-05-07 14:24:40  4529A  33.6 °C  61.8 %   14:24 
 1057746  2026-05-07 14:24:06  89M1B  35.9 °C  61.8 %   14:24 
 1057745  2026-05-07 14:23:18  20402  29.2 °C  41.1 %   14:23 
 1057744  2026-05-07 14:20:32  4529C  32.1 °C  54.4 %   14:20 
 1057743  2026-05-07 14:15:37  4529D  30.9 °C  79.9 %   14:15 
 1057742  2026-05-07 14:14:27  89M1B  35.9 °C  61.7 %   14:14 
 1057741  2026-05-07 14:14:25  4529A  33.5 °C  62.5 %   14:14 
 1057740  2026-05-07 14:13:08  20402  29.2 °C  41.2 %   14:13 
 1057739  2026-05-07 14:10:17  4529C  32.0 °C  54.2 %   14:10 
 1057738  2026-05-07 14:06:05  4529D  30.9 °C  80.2 %   14:06 
 1057737  2026-05-07 14:04:48  89M1B  36.4 °C  60.8 %   14:04 
 1057736  2026-05-07 14:04:13  4529A  33.5 °C  62.5 %   14:04 
 1057735  2026-05-07 14:02:56  20402  27.9 °C  43.0 %   14:02 
 1057734  2026-05-07 14:00:04  4529C  31.9 °C  54.1 %   14:00 
 1057733  2026-05-07 13:56:29  4529D  30.8 °C  79.4 %   13:56 
 1057732  2026-05-07 13:55:09  89M1B  36.4 °C  60.3 %   13:55 
 1057731  2026-05-07 13:54:00  4529A  33.5 °C  62.7 %   13:54 
 1057730  2026-05-07 13:52:44  20402  28.2 °C  44.9 %   13:52 
 1057729  2026-05-07 13:49:51  4529C  31.8 °C  54.0 %   13:49 
 1057728  2026-05-07 13:46:56  4529D  30.9 °C  77.0 %   13:46 
 1057727  2026-05-07 13:45:30  89M1B  36.2 °C  60.0 %   13:45 
 1057726  2026-05-07 13:43:45  4529A  33.4 °C  63.0 %   13:43 
 1057725  2026-05-07 13:42:35  20402  28.6 °C  46.8 %   13:42 
 1057724  2026-05-07 13:39:39  4529C  31.8 °C  54.0 %   13:39 
 1057723  2026-05-07 13:37:24  4529D  30.9 °C  77.8 %   13:37 
 1057722  2026-05-07 13:35:51  89M1B  36.2 °C  59.6 %   13:35 
 1057721  2026-05-07 13:33:32  4529A  33.3 °C  63.0 %   13:33 
 1057720  2026-05-07 13:32:25  20402  29.5 °C  49.5 %   13:32 
 1057719  2026-05-07 13:29:25  4529C  31.8 °C  53.8 %   13:29 
 1057718  2026-05-07 13:27:51  4529D  30.7 °C  80.0 %   13:27 
 1057717  2026-05-07 13:26:12  89M1B  36.2 °C  59.8 %   13:26 
 1057716  2026-05-07 13:23:20  4529A  33.3 °C  63.1 %   13:23 
 1057715  2026-05-07 13:22:16  20402  30.8 °C  50.4 %   13:22 
 1057714  2026-05-07 13:19:12  4529C  31.8 °C  53.8 %   13:19 
 1057713  2026-05-07 13:18:18  4529D  30.7 °C  79.5 %   13:18 
 1057712  2026-05-07 13:16:33  89M1B  36.2 °C  59.4 %   13:16 
 1057711  2026-05-07 13:13:09  4529A  33.2 °C  63.0 %   13:13 
 1057710  2026-05-07 13:12:06  20402  30.8 °C  50.3 %   13:12 
 1057709  2026-05-07 13:08:58  4529C  31.8 °C  53.9 %   13:08 
 1057708  2026-05-07 13:08:46  4529D  30.7 °C  79.3 %   13:08 
 1057707  2026-05-07 13:06:54  89M1B  36.1 °C  57.2 %   13:06 
 1057706  2026-05-07 13:02:57  4529A  33.2 °C  63.1 %   13:02 
 1057705  2026-05-07 13:01:54  20402  30.8 °C  48.7 %   13:01 
 1057704  2026-05-07 12:59:12  4529D  30.6 °C  79.3 %   12:59 
 1057703  2026-05-07 12:58:45  4529C  31.7 °C  53.8 %   12:58 
 1057702  2026-05-07 12:57:15  89M1B  36.0 °C  57.7 %   12:57 
 1057701  2026-05-07 12:52:44  4529A  33.1 °C  62.9 %   12:52 
 1057700  2026-05-07 12:51:44  20402  30.7 °C  48.6 %   12:51 
 1057699  2026-05-07 12:49:40  4529D  30.6 °C  79.3 %   12:49 
 1057698  2026-05-07 12:48:33  4529C  31.7 °C  53.6 %   12:48 
 1057697  2026-05-07 12:47:36  89M1B  35.8 °C  57.6 %   12:47 
 1057696  2026-05-07 12:42:32  4529A  33.1 °C  62.9 %   12:42 
 1057695  2026-05-07 12:41:32  20402  30.7 °C  48.4 %   12:41 
 1057694  2026-05-07 12:40:07  4529D  30.6 °C  79.5 %   12:40 

Data every 20 minute.